Weather History for West Plains, MO

Change the Weather History Date:

Sunday, February 10, 2013

  Actual Average Record
Temperature  
Mean Temperature 52 °F 36 °F  
Max Temperature 65 °F 48 °F 76 °F (1976)
Min Temperature 38 °F 25 °F -2 °F (2011)
Degree Days  
Heating Degree Days 13 28  
Month to date heating degree days 245 293  
Since 1 July heating degree days 2791 2997  
Cooling Degree Days 0 0  
Month to date cooling degree days 0 0  
Year to date cooling degree days 0 0  
Moisture  
Dew Point 40 °F    
Average Humidity 62    
Maximum Humidity 96    
Minimum Humidity 27    
Precipitation  
Precipitation 0.69 in 0.11 in 0.69 in (1953)
Month to date precipitation 1.35 0.97  
Year to date precipitation 4.73 3.69  
Sea Level Pressure  
Sea Level Pressure 29.77 in    
Wind  
Wind Speed 11 mph (South)    
Max Wind Speed 26 mph    
Max Gust Speed 36 mph    
Visibility 8 miles    
Events Rain , Thunderstorm    
T = Trace of Precipitation, MM = Missing Value Source: NWS Daily Summary

Daily Weather History Graph

Daily Weather History Graph

Search for Another Location

Airport:

Trip Planner

Search our weather history database for the weather conditions in past years. The results will help you decide how hot, cold, wet, or windy it might be!

Date:

Astronomy

Feb. 10, 2013 Rise Set
Actual Time 7:01 AM CST 5:42 PM CST
Civil Twilight 6:34 AM CST 6:09 PM CST
Nautical Twilight 6:03 AM CST 6:40 PM CST
Astronomical Twilight 5:33 AM CST 7:10 PM CST
Moon 6:53 AM CST (2/10) 6:31 PM CST (2/10)
Length of Visible Light 11h 35m
Length of Day
10h 41m
New Moon, 0% of the Moon is Illuminated
Feb 10
New Moon
Feb 17
First Quarter
Feb 25
Full
Mar 4
Last Quarter
Mar 11
New

Hourly Weather History & Observations

Time (CST) Temp. Windchill Dew Point Humidity Pressure Visibility Wind Dir Wind Speed Gust Speed Precip Events Conditions
12:53 AM 37.9 °F 32.1 °F 34.0 °F 86% 29.98 in 8.0 mi SE 8.1 mph - 0.01 in   Overcast
1:53 AM 39.0 °F 32.8 °F 34.0 °F 82% 29.95 in 8.0 mi SSE 9.2 mph - N/A   Overcast
2:53 AM 39.9 °F 33.9 °F 35.1 °F 83% 29.89 in 9.0 mi SE 9.2 mph - N/A   Overcast
3:53 AM 42.1 °F 35.7 °F 36.0 °F 79% 29.83 in 10.0 mi SE 11.5 mph 20.7 mph N/A   Overcast
4:53 AM 45.0 °F 38.9 °F 37.9 °F 76% 29.81 in 10.0 mi SE 12.7 mph 20.7 mph N/A   Overcast
5:25 AM 46.4 °F 41.1 °F 39.2 °F 76% 29.82 in 10.0 mi SSE 11.5 mph 23.0 mph N/A   Overcast
5:53 AM 46.0 °F 41.9 °F 39.0 °F 76% 29.81 in 10.0 mi SSE 8.1 mph - N/A   Overcast
6:11 AM 46.4 °F 41.1 °F 39.2 °F 76% 29.80 in 9.0 mi SSE 11.5 mph - 0.00 in Rain , Thunderstorm Light Thunderstorms and Rain
6:46 AM 44.6 °F 41.4 °F 42.8 °F 93% 29.85 in 1.8 mi West 5.8 mph 18.4 mph 0.15 in Rain , Thunderstorm Heavy Thunderstorms and Rain
6:53 AM 44.1 °F - 42.1 °F 93% 29.84 in 1.2 mi Calm Calm - 0.24 in Rain , Thunderstorm Heavy Thunderstorms and Rain
7:05 AM 44.6 °F 42.2 °F 42.8 °F 93% 29.83 in 2.0 mi SSE 4.6 mph - 0.09 in Rain , Thunderstorm Heavy Thunderstorms and Rain
7:53 AM 45.0 °F 40.1 °F 43.0 °F 93% 29.81 in 2.5 mi SE 9.2 mph - 0.37 in Rain Rain
8:16 AM 44.6 °F 40.2 °F 42.8 °F 93% 29.79 in 3.0 mi SE 8.1 mph - 0.06 in Rain Rain
8:49 AM 46.4 °F 41.9 °F 44.6 °F 93% 29.75 in 10.0 mi SE 9.2 mph 21.9 mph 0.07 in   Mostly Cloudy
8:53 AM 46.0 °F 41.0 °F 44.1 °F 93% 29.76 in 10.0 mi SE 10.4 mph - 0.07 in   Mostly Cloudy
9:16 AM 46.4 °F 42.4 °F 44.6 °F 93% 29.74 in 10.0 mi SE 8.1 mph - N/A   Overcast
9:27 AM 46.4 °F 42.9 °F 44.6 °F 93% 29.74 in 10.0 mi SE 6.9 mph - N/A   Overcast
9:51 AM 46.4 °F 42.9 °F 44.6 °F 93% 29.74 in 10.0 mi SSE 6.9 mph - N/A   Overcast
9:53 AM 46.9 °F - 45.0 °F 93% 29.75 in 10.0 mi SSE 6.9 mph - N/A   Overcast
10:53 AM 48.9 °F - 46.9 °F 93% 29.75 in 3.0 mi SSE 10.4 mph - N/A   Overcast
11:02 AM 48.2 °F - 46.4 °F 93% 29.73 in 1.8 mi SSE 10.4 mph - N/A   Overcast
11:25 AM 50.0 °F - 48.2 °F 94% 29.71 in 3.0 mi South 10.4 mph - N/A   Overcast
11:53 AM 52.0 °F - 50.0 °F 93% 29.69 in 8.0 mi South 11.5 mph 20.7 mph N/A   Overcast
12:37 PM 55.4 °F - 51.8 °F 88% 29.65 in 10.0 mi South 11.5 mph 20.7 mph N/A   Overcast
12:46 PM 55.4 °F - 51.8 °F 88% 29.66 in 10.0 mi SSW 10.4 mph 20.7 mph N/A   Overcast
12:53 PM 57.0 °F - 52.0 °F 83% 29.66 in 10.0 mi SSW 11.5 mph 19.6 mph N/A   Overcast
1:00 PM 57.2 °F - 51.8 °F 82% 29.66 in 10.0 mi SW 12.7 mph 19.6 mph N/A   Overcast
1:11 PM 59.0 °F - 51.8 °F 77% 29.65 in 10.0 mi SSW 15.0 mph 23.0 mph N/A   Overcast
1:44 PM 60.8 °F - 51.8 °F 72% 29.64 in 10.0 mi SW 13.8 mph 21.9 mph N/A   Partly Cloudy
1:53 PM 61.0 °F - 51.1 °F 70% 29.63 in 10.0 mi SW 16.1 mph 21.9 mph N/A   Partly Cloudy
2:53 PM 64.0 °F - 39.9 °F 41% 29.65 in 10.0 mi SW 13.8 mph 27.6 mph N/A   Scattered Clouds
3:53 PM 63.0 °F - 30.0 °F 29% 29.68 in 10.0 mi WSW 16.1 mph 25.3 mph N/A   Clear
4:53 PM 60.1 °F - 26.1 °F 27% 29.71 in 10.0 mi WSW 12.7 mph 20.7 mph N/A   Clear
5:53 PM 55.9 °F - 26.1 °F 32% 29.75 in 10.0 mi WSW 12.7 mph 20.7 mph N/A   Clear
6:53 PM 53.1 °F - 27.0 °F 37% 29.78 in 10.0 mi WSW 8.1 mph - N/A   Clear
7:53 PM 50.0 °F - 28.0 °F 43% 29.82 in 10.0 mi WSW 6.9 mph - N/A   Clear
8:53 PM 50.0 °F - 27.0 °F 41% 29.84 in 10.0 mi WSW 10.4 mph - N/A   Clear
9:53 PM 50.0 °F - 28.0 °F 43% 29.87 in 10.0 mi West 12.7 mph 19.6 mph N/A   Clear
10:53 PM 46.9 °F - 27.0 °F 46% 29.92 in 10.0 mi West 16.1 mph 23.0 mph N/A   Clear
11:53 PM 43.0 °F 35.1 °F 26.1 °F 51% 29.95 in 10.0 mi West 17.3 mph 28.8 mph N/A   Clear